sat.trackr.live / text

‹ back to catalog

STARLINK-36243

NORAD 67077 · 2025-298C

PAYLOAD ACTIVE UNKNOWN

§ Identity

Operator
Country
US
Launch date
2025-12-14
Launch site
AFWTR
Launch vehicle
Mass (kg)
RCS (m²)

Purposes: comms

External: N2YO · Heavens-Above · Gunter

§ Orbital elements

Epoch: 2026-09-20T05:35:09.653568Z

Period
96.11 min
Inclination
69.9992°
Eccentricity
0.0003889
Mean motion
14.98337821 rev/d
Perigee alt
569.3 km
Apogee alt
574.7 km
Semi-major
6,950.2 km
B*
2.8225e-4
RAAN
244.1212°
Arg perigee
267.3838°
Mean anomaly
92.6876°
Rev number
4,235

§ Raw data

STARLINK-362431 67077U 25298C   26263.23275062  .00003277  00000+0  28225-3 0  99992 67077  69.9992 244.1212 0003889 267.3838  92.6876 14.98337821 42352

JSON: /api/v1/satellites/67077 · /tle

For live sub-satellite position, see the globe view (requires WebGL).

§ Visibility from observer

Set your observer location to see the next 7 days of passes ≥ 10°. The values pass through the URL so the page stays shareable.

No JS? Fill the form by hand. The geolocation button needs JavaScript.